Tracking 19476 objects as of 17-Jan-2019
HD Live streaming from Space Station
objects crossing your sky now

USA 28

Track USA 28 now!
USA 28 is classified as:


NORAD ID: 18583
Int'l Code: 1987-097A
Perigee: 36,234.5 km
Apogee: 36,424.0 km
Inclination: 14.3 °
Period: 1,463.5 minutes
Semi major axis: 42700 km
RCS: Unknown
Launch date: November 29, 1987
Source: United States (US)
Launch site: AIR FORCE EASTERN TEST RANGE (AFETR)
aabbcc
Your satellite tracking list
Your tracking list is empty




NASA's NSSDC Master Catalog

Two Line Element Set (TLE):
1 18583U 87097A   18329.33159035 0.00000000  00000-0  00000-0 0    01
2 18583  14.3439 358.0003 0022189 215.2677 144.5974  0.98391405    05
Source of the keplerian elements: McCants